Tracking 26544 objects as of 9-Dec-2022
HD Live streaming from Space Station
objects crossing your sky now

STARLINK-4758

Track STARLINK-4758 now!
10-day predictions
STARLINK-4758 is classified as:


NORAD ID: 53820
Int'l Code: 2022-114C
Perigee: 545.6 km
Apogee: 548.1 km
Inclination: 53.2 °
Period: 95.4 minutes
Semi major axis: 6917 km
RCS: Unknown
Launch date: September 19, 2022
Source: United States (US)
Launch site: AIR FORCE EASTERN TEST RANGE (AFETR)
aabbcc
Your satellite tracking list
Your tracking list is empty




NASA's NSSDC Master Catalog

Two Line Element Set (TLE):
1 53820U 22114C   22342.43822805  .00000392  00000-0  42692-4 0  9994
2 53820  53.2154 234.1090 0001758  42.3216 317.7911 15.08847533 13050
Source of the keplerian elements: AFSPC